Time,TemperatureF,DewpointF,PressureIn,WindDirection,WindDirectionDegrees,WindSpeedMPH,WindSpeedGustMPH,Humidity,HourlyPrecipIn,Conditions,Clouds,dailyrainin,SolarRadiationWatts/m^2,SoftwareType,DateUTC
2013-06-26 00:01:00,72.6,70.0,29.80,North,350,0.0,1.0,90,0.00,,,0.00,0,weatherlink.com 1.10,2013-06-26 04:01:00,
2013-06-26 00:16:00,72.3,70.0,29.79,North,350,1.0,1.0,91,0.00,,,0.00,0,weatherlink.com 1.10,2013-06-26 04:16:00,
2013-06-26 00:31:00,71.9,70.0,29.78,North,350,0.0,0.0,92,0.00,,,0.00,0,weatherlink.com 1.10,2013-06-26 04:31:00,
2013-06-26 00:46:00,71.3,69.0,29.78,North,350,0.0,0.0,93,0.00,,,0.00,0,weatherlink.com 1.10,2013-06-26 04:46:00,
2013-06-26 01:01:00,71.0,69.0,29.77,North,350,0.0,0.0,93,0.00,,,0.00,0,weatherlink.com 1.10,2013-06-26 05:01:00,
2013-06-26 01:16:00,70.7,69.0,29.77,North,350,0.0,0.0,94,0.00,,,0.00,0,weatherlink.com 1.10,2013-06-26 05:16:00,
2013-06-26 01:31:00,70.7,69.0,29.76,North,350,0.0,1.0,95,0.00,,,0.00,0,weatherlink.com 1.10,2013-06-26 05:31:00,
2013-06-26 01:46:00,70.7,69.0,29.75,North,350,0.0,0.0,95,0.00,,,0.00,0,weatherlink.com 1.10,2013-06-26 05:46:00,
2013-06-26 02:01:00,70.6,69.0,29.76,North,350,0.0,1.0,95,0.00,,,0.00,0,weatherlink.com 1.10,2013-06-26 06:01:00,
2013-06-26 02:16:00,70.8,69.0,29.75,North,350,0.0,1.0,95,0.00,,,0.00,0,weatherlink.com 1.10,2013-06-26 06:16:00,
2013-06-26 02:31:00,70.5,69.0,29.75,North,350,0.0,1.0,95,0.00,,,0.00,0,weatherlink.com 1.10,2013-06-26 06:31:00,
2013-06-26 02:46:00,70.3,69.0,29.75,North,350,0.0,1.0,96,0.00,,,0.00,0,weatherlink.com 1.10,2013-06-26 06:46:00,
2013-06-26 03:01:00,70.1,69.0,29.74,North,350,0.0,1.0,96,0.00,,,0.00,0,weatherlink.com 1.10,2013-06-26 07:01:00,
2013-06-26 03:16:00,70.0,69.0,29.74,North,350,0.0,0.0,96,0.00,,,0.00,0,weatherlink.com 1.10,2013-06-26 07:16:00,
2013-06-26 03:31:00,70.1,69.0,29.73,North,350,0.0,1.0,96,0.00,,,0.00,0,weatherlink.com 1.10,2013-06-26 07:31:00,
2013-06-26 04:01:00,69.8,69.0,29.74,North,350,0.0,0.0,96,0.00,,,0.00,0,weatherlink.com 1.10,2013-06-26 08:01:00,
2013-06-26 04:16:00,70.0,69.0,29.74,North,350,0.0,0.0,96,0.00,,,0.00,0,weatherlink.com 1.10,2013-06-26 08:16:00,
2013-06-26 04:31:00,69.8,69.0,29.74,North,350,0.0,0.0,96,0.00,,,0.00,0,weatherlink.com 1.10,2013-06-26 08:31:00,
2013-06-26 04:46:00,69.8,69.0,29.74,North,350,0.0,0.0,96,0.00,,,0.00,0,weatherlink.com 1.10,2013-06-26 08:46:00,
2013-06-26 05:01:00,70.3,69.0,29.75,North,350,0.0,1.0,97,0.00,,,0.00,0,weatherlink.com 1.10,2013-06-26 09:01:00,
2013-06-26 05:16:00,70.0,69.0,29.76,North,349,0.0,2.0,96,0.00,,,0.00,0,weatherlink.com 1.10,2013-06-26 09:16:00,
2013-06-26 05:31:00,70.4,69.0,29.76,North,349,0.0,0.0,96,0.00,,,0.00,0,weatherlink.com 1.10,2013-06-26 09:31:00,
2013-06-26 05:47:00,70.2,69.0,29.76,North,349,0.0,0.0,96,0.00,,,0.00,5,weatherlink.com 1.10,2013-06-26 09:47:00,
2013-06-26 06:02:00,70.1,69.0,29.75,North,349,0.0,1.0,96,0.00,,,0.00,11,weatherlink.com 1.10,2013-06-26 10:02:00,
2013-06-26 06:17:00,70.2,69.0,29.75,North,349,0.0,0.0,96,0.00,,,0.00,32,weatherlink.com 1.10,2013-06-26 10:17:00,
2013-06-26 06:32:00,70.5,69.0,29.75,North,349,0.0,0.0,96,0.00,,,0.00,49,weatherlink.com 1.10,2013-06-26 10:32:00,
2013-06-26 06:47:00,71.2,70.0,29.76,North,349,0.0,1.0,95,0.00,,,0.00,83,weatherlink.com 1.10,2013-06-26 10:47:00,
2013-06-26 07:02:00,72.0,70.0,29.77,North,349,0.0,1.0,94,0.00,,,0.00,47,weatherlink.com 1.10,2013-06-26 11:02:00,
2013-06-26 07:18:00,72.8,71.0,29.77,North,349,0.0,1.0,94,0.00,,,0.00,67,weatherlink.com 1.10,2013-06-26 11:18:00,
2013-06-26 07:33:00,73.8,71.0,29.78,North,349,0.0,1.0,92,0.00,,,0.00,72,weatherlink.com 1.10,2013-06-26 11:33:00,
2013-06-26 07:48:00,75.1,72.0,29.77,North,349,0.0,0.0,90,0.00,,,0.00,81,weatherlink.com 1.10,2013-06-26 11:48:00,
2013-06-26 08:03:00,76.5,72.0,29.77,NNW,333,0.0,2.0,87,0.00,,,0.00,86,weatherlink.com 1.10,2013-06-26 12:03:00,
2013-06-26 08:18:00,77.9,73.0,29.77,West,280,0.0,4.0,85,0.00,,,0.00,91,weatherlink.com 1.10,2013-06-26 12:18:00,
2013-06-26 08:33:00,78.6,73.0,29.77,West,275,0.0,6.0,82,0.00,,,0.00,220,weatherlink.com 1.10,2013-06-26 12:33:00,
2013-06-26 08:49:00,79.3,73.0,29.77,NW,318,0.0,6.0,82,0.00,,,0.00,274,weatherlink.com 1.10,2013-06-26 12:49:00,
2013-06-26 09:06:00,79.7,73.0,29.78,WNW,282,0.0,3.0,80,0.00,,,0.00,271,weatherlink.com 1.10,2013-06-26 13:06:00,
2013-06-26 09:19:00,79.6,73.0,29.78,NNW,327,0.0,3.0,80,0.00,,,0.00,594,weatherlink.com 1.10,2013-06-26 13:19:00,
2013-06-26 09:36:00,81.0,73.0,29.78,WNW,285,3.0,8.0,76,0.00,,,0.00,624,weatherlink.com 1.10,2013-06-26 13:36:00,
2013-06-26 09:49:00,81.6,73.0,29.78,SSW,194,1.0,7.0,75,0.00,,,0.00,656,weatherlink.com 1.10,2013-06-26 13:49:00,
2013-06-26 10:04:00,82.3,73.0,29.78,NNW,346,0.0,6.0,73,0.00,,,0.00,701,weatherlink.com 1.10,2013-06-26 14:04:00,
2013-06-26 10:20:00,82.6,72.0,29.77,NNW,344,0.0,7.0,70,0.00,,,0.00,749,weatherlink.com 1.10,2013-06-26 14:20:00,
2013-06-26 10:36:00,83.5,73.0,29.77,WSW,240,2.0,6.0,71,0.00,,,0.00,775,weatherlink.com 1.10,2013-06-26 14:36:00,
2013-06-26 10:50:00,84.5,72.0,29.78,North,355,1.0,6.0,67,0.00,,,0.00,840,weatherlink.com 1.10,2013-06-26 14:50:00,
2013-06-26 11:06:00,85.0,73.0,29.78,WSW,253,3.0,9.0,68,0.00,,,0.00,912,weatherlink.com 1.10,2013-06-26 15:06:00,
2013-06-26 11:20:00,85.3,72.0,29.78,WNW,288,2.0,7.0,65,0.00,,,0.00,670,weatherlink.com 1.10,2013-06-26 15:20:00,
2013-06-26 11:36:00,84.5,72.0,29.78,West,279,2.0,5.0,66,0.00,,,0.00,482,weatherlink.com 1.10,2013-06-26 15:36:00,
2013-06-26 11:51:00,83.7,73.0,29.78,SW,232,3.0,8.0,71,0.00,,,0.00,325,weatherlink.com 1.10,2013-06-26 15:51:00,
2013-06-26 12:06:00,83.5,74.0,29.78,South,189,2.0,7.0,73,0.00,,,0.00,439,weatherlink.com 1.10,2013-06-26 16:06:00,
2013-06-26 12:21:00,83.4,74.0,29.78,SSE,167,5.0,7.0,74,0.00,,,0.00,443,weatherlink.com 1.10,2013-06-26 16:21:00,
2013-06-26 12:36:00,82.1,74.0,29.78,South,175,2.0,9.0,76,0.00,,,0.00,341,weatherlink.com 1.10,2013-06-26 16:36:00,
2013-06-26 12:51:00,81.4,74.0,29.79,South,186,9.0,10.0,77,0.00,,,0.00,264,weatherlink.com 1.10,2013-06-26 16:51:00,
2013-06-26 13:06:00,80.3,73.0,29.79,SSW,209,2.0,7.0,77,0.00,,,0.00,383,weatherlink.com 1.10,2013-06-26 17:06:00,
2013-06-26 13:21:00,80.8,73.0,29.79,SW,220,4.0,7.0,76,0.00,,,0.00,538,weatherlink.com 1.10,2013-06-26 17:21:00,
2013-06-26 13:36:00,82.0,73.0,29.78,South,186,1.0,7.0,75,0.00,,,0.00,624,weatherlink.com 1.10,2013-06-26 17:36:00,
2013-06-26 13:52:00,81.0,72.0,29.78,SW,215,3.0,11.0,75,0.00,,,0.00,418,weatherlink.com 1.10,2013-06-26 17:52:00,
2013-06-26 14:07:00,80.9,72.0,29.78,West,277,4.0,11.0,75,0.00,,,0.00,422,weatherlink.com 1.10,2013-06-26 18:07:00,
2013-06-26 14:22:00,81.5,72.0,29.79,SSW,197,7.0,14.0,73,0.00,,,0.00,455,weatherlink.com 1.10,2013-06-26 18:22:00,
2013-06-26 14:37:00,80.6,72.0,29.79,NW,310,2.0,12.0,74,0.00,,,0.00,237,weatherlink.com 1.10,2013-06-26 18:37:00,
2013-06-26 14:52:00,80.9,72.0,29.79,South,169,2.0,10.0,74,0.00,,,0.00,503,weatherlink.com 1.10,2013-06-26 18:52:00,
2013-06-26 15:07:00,81.7,72.0,29.78,SSE,161,1.0,6.0,73,0.00,,,0.00,585,weatherlink.com 1.10,2013-06-26 19:07:00,
2013-06-26 15:22:00,83.0,72.0,29.77,SE,134,0.0,8.0,70,0.00,,,0.00,325,weatherlink.com 1.10,2013-06-26 19:22:00,
2013-06-26 15:38:00,81.6,73.0,29.77,West,277,0.0,4.0,74,0.00,,,0.00,336,weatherlink.com 1.10,2013-06-26 19:38:00,
2013-06-26 15:53:00,81.1,72.0,29.77,West,273,0.0,6.0,74,0.00,,,0.00,272,weatherlink.com 1.10,2013-06-26 19:53:00,
2013-06-26 16:08:00,81.9,74.0,29.77,WNW,284,7.0,9.0,76,0.00,,,0.00,696,weatherlink.com 1.10,2013-06-26 20:08:00,
2013-06-26 16:23:00,82.3,72.0,29.77,SW,229,1.0,8.0,72,0.00,,,0.00,283,weatherlink.com 1.10,2013-06-26 20:23:00,
2013-06-26 16:38:00,81.8,73.0,29.76,West,265,2.0,5.0,75,0.00,,,0.00,336,weatherlink.com 1.10,2013-06-26 20:38:00,
2013-06-26 16:53:00,81.6,72.0,29.77,SSW,213,1.0,11.0,73,0.00,,,0.00,232,weatherlink.com 1.10,2013-06-26 20:53:00,
2013-06-26 17:08:00,82.0,73.0,29.77,SW,236,0.0,4.0,73,0.00,,,0.00,348,weatherlink.com 1.10,2013-06-26 21:08:00,
2013-06-26 17:24:00,81.9,73.0,29.77,West,261,0.0,1.0,74,0.00,,,0.00,139,weatherlink.com 1.10,2013-06-26 21:24:00,
2013-06-26 17:39:00,81.1,73.0,29.77,WNW,283,0.0,3.0,76,0.00,,,0.00,139,weatherlink.com 1.10,2013-06-26 21:39:00,
2013-06-26 17:54:00,81.0,73.0,29.77,WSW,255,0.0,1.0,77,0.00,,,0.00,120,weatherlink.com 1.10,2013-06-26 21:54:00,
2013-06-26 18:09:00,80.5,73.0,29.77,WSW,254,0.0,1.0,77,0.00,,,0.00,118,weatherlink.com 1.10,2013-06-26 22:09:00,
2013-06-26 18:24:00,80.1,73.0,29.77,WSW,255,0.0,1.0,79,0.00,,,0.00,70,weatherlink.com 1.10,2013-06-26 22:24:00,
2013-06-26 18:39:00,79.8,73.0,29.78,WSW,255,0.0,1.0,79,0.00,,,0.00,65,weatherlink.com 1.10,2013-06-26 22:39:00,
2013-06-26 18:54:00,79.0,73.0,29.79,WSW,255,0.0,1.0,81,0.00,,,0.00,72,weatherlink.com 1.10,2013-06-26 22:54:00,
2013-06-26 19:10:00,78.9,73.0,29.79,WSW,256,0.0,1.0,81,0.00,,,0.00,30,weatherlink.com 1.10,2013-06-26 23:10:00,
2013-06-26 19:26:00,78.9,73.0,29.80,WSW,256,0.0,0.0,81,0.00,,,0.00,16,weatherlink.com 1.10,2013-06-26 23:26:00,
2013-06-26 19:40:00,78.2,73.0,29.80,WSW,256,0.0,0.0,83,0.00,,,0.00,9,weatherlink.com 1.10,2013-06-26 23:40:00,
2013-06-26 19:56:00,77.3,73.0,29.80,WSW,256,0.0,0.0,85,0.00,,,0.00,5,weatherlink.com 1.10,2013-06-26 23:56:00,
2013-06-26 20:10:00,76.4,73.0,29.80,WSW,256,0.0,1.0,89,0.00,,,0.00,5,weatherlink.com 1.10,2013-06-27 00:10:00,
2013-06-26 20:26:00,75.3,73.0,29.80,WSW,256,0.0,0.0,92,0.01,,,0.01,7,weatherlink.com 1.10,2013-06-27 00:26:00,
2013-06-26 20:40:00,74.8,73.0,29.79,WSW,256,0.0,0.0,93,0.01,,,0.01,0,weatherlink.com 1.10,2013-06-27 00:40:00,
2013-06-26 20:56:00,74.4,73.0,29.80,WSW,256,0.0,0.0,95,0.01,,,0.01,0,weatherlink.com 1.10,2013-06-27 00:56:00,
2013-06-26 21:10:00,74.1,73.0,29.80,WSW,256,0.0,0.0,95,0.01,,,0.01,0,weatherlink.com 1.10,2013-06-27 01:10:00,
2013-06-26 21:26:00,73.8,73.0,29.80,WSW,256,0.0,1.0,96,0.00,,,0.01,0,weatherlink.com 1.10,2013-06-27 01:26:00,
2013-06-26 21:41:00,73.6,72.0,29.80,WSW,256,0.0,0.0,96,0.00,,,0.01,0,weatherlink.com 1.10,2013-06-27 01:41:00,
2013-06-26 21:56:00,73.5,72.0,29.81,WSW,256,0.0,0.0,96,0.00,,,0.01,0,weatherlink.com 1.10,2013-06-27 01:56:00,
2013-06-26 22:11:00,73.3,72.0,29.82,WSW,256,0.0,0.0,96,0.00,,,0.01,0,weatherlink.com 1.10,2013-06-27 02:11:00,
2013-06-26 22:26:00,73.0,72.0,29.82,WSW,256,0.0,0.0,97,0.00,,,0.01,0,weatherlink.com 1.10,2013-06-27 02:26:00,
2013-06-26 22:41:00,72.7,72.0,29.82,WSW,256,0.0,0.0,97,0.00,,,0.01,0,weatherlink.com 1.10,2013-06-27 02:41:00,
2013-06-26 22:57:00,72.2,71.0,29.82,WSW,256,0.0,0.0,97,0.00,,,0.01,0,weatherlink.com 1.10,2013-06-27 02:57:00,
2013-06-26 23:11:00,72.0,71.0,29.82,WSW,256,0.0,0.0,97,0.00,,,0.01,0,weatherlink.com 1.10,2013-06-27 03:11:00,
2013-06-26 23:27:00,71.5,71.0,29.82,WSW,256,0.0,0.0,97,0.00,,,0.01,0,weatherlink.com 1.10,2013-06-27 03:27:00,
2013-06-26 23:42:00,71.5,71.0,29.82,WSW,256,0.0,1.0,97,0.00,,,0.01,0,weatherlink.com 1.10,2013-06-27 03:42:00,
2013-06-26 23:57:00,71.3,70.0,29.81,WSW,256,0.0,1.0,97,0.00,,,0.00,0,weatherlink.com 1.10,2013-06-27 03:57:00,